Location: Newark
(15.7835°S, 47.8992°W)
Time: 18:40:38
(UTC+00:00)

X-37B - Visible Passes

Search period start: 22 September 2020 00:00
Search period end: 02 October 2020 00:00
Orbit: 386 x 387 km, 45.0° (Epoch: 18 September)

Date Brightness Start Highest point End Pass type
(mag) Time Alt. Az. Time Alt. Az. Time Alt. Az.
22 Sep 0.6 22:08:25 10° SW 22:11:35 58° SE 22:12:13 46° E visible
23 Sep 3.2 22:47:21 10° W 22:49:26 16° NW 22:49:30 16° NW visible
24 Sep 1.7 21:47:54 10° WSW 21:50:58 44° NW 21:54:00 10° NNE visible
26 Sep 3.5 21:28:13 10° W 21:30:19 16° NW 21:32:24 10° N visible
01 Oct 1.8 08:22:59 10° NNW 08:26:01 41° NE 08:29:03 10° ESE visible
